Location: Home
(51.5204°N, 2.5456°W)
Time: 05:34:53
(UTC+01:00)

N. Korean satellite - Visible Passes

Search period start: 14 October 2019 00:00
Search period end: 24 October 2019 00:00
Orbit: 455 x 508 km, 97.2° (Epoch: 13 October)

Date Brightness Start Highest point End Pass type
(mag) Time Alt. Az. Time Alt. Az. Time Alt. Az.
14 Oct 8.4 06:46:17 10° NNE 06:49:36 37° E 06:52:57 10° SSE visible
14 Oct 9.5 19:00:52 10° SW 19:03:36 22° W 19:06:21 10° NW visible
15 Oct 9.6 06:21:27 10° NE 06:24:10 20° E 06:26:54 10° SE visible
16 Oct 10.4 05:57:26 10° ENE 05:58:38 11° E 05:59:51 10° ESE visible
17 Oct 10.1 19:19:17 10° SW 19:21:15 14° W 19:23:14 10° NW visible
18 Oct 8.8 06:38:34 10° NNE 06:41:47 31° E 06:45:03 10° SSE visible
18 Oct 9.1 18:52:49 10° SSW 18:55:44 26° W 18:58:43 10° NW visible
19 Oct 9.9 06:13:51 10° NE 06:16:19 17° E 06:18:49 10° SE visible
21 Oct 7.8 06:55:51 10° NNE 06:59:21 48° E 07:02:55 10° S visible
21 Oct 9.9 19:10:59 10° SW 19:13:21 17° W 19:15:45 10° NW visible
22 Oct 9.1 06:30:50 10° NE 06:33:57 26° E 06:37:04 10° SSE visible
22 Oct 8.7 18:44:44 10° SSW 18:47:51 32° W 18:51:01 10° NNW visible
23 Oct 10.1 06:06:17 10° NE 06:08:26 15° E 06:10:36 10° SE visible
